www.pogodaiklimat.ru

Погода и климат >> Архив погоды >> Россия >> Ивановская область >> Шуя


ПОГОДА в Шуе

  • Прогноз погоды в Шуе
  • Монитор погоды в Шуе

АРХИВ ПОГОДЫ в Шуе

Время (UTC), дата Ветер
(напр.,м/с)
 
Видим.   Явления Облачность Т
(С)
Тd
(С)
f
(%)
Тe
(С)
Тes
(С)
Комфортность P
(гПа)
Po
(гПа)
Тmin
(С)
Tmax
(С)
R
(мм)
R24
(мм)
S
(см)
03 20.03 ЮЗ 2 4000 м дымка 10/10 50 м
[St]
+1.7 +1.0 95 -2 -2 1020.8 1008.3 +1.7 1 42
06 20.03 ЮЗ 2 1000 м дымка 10/10 100 м
[St]
+1.8 +1.1 95 -2 -2 1021.2 1008.9 +1.4
09 20.03 ЮЗ 3 10 км 10/10 600 м
[Sc]
+3.8 -0.2 75 0 0 1021.0 1008.8
12 20.03 З 4 10 км 10/6 600 м
[Sc Ac und]
+3.9 -2.2 64 -0 0 1021.0 1008.8
15 20.03 ЮЗ 2 10 км 10/8 600 м
[Sc Ac und]
+4.1 -3.5 58 +2 +2 1020.8 1008.6 +5.0
18 20.03 З 2 10 км 10/0
[Ac und]
+2.6 -2.9 67 -0 -0 1021.5 1009.2
21 20.03 З 3 10 км 10/0
[Ac und]
+2.1 -2.6 71 -2 -2 1020.8 1008.5
00 21.03 ЮЗ 2 10 км 10/0
[Ac und]
+1.4 -2.4 76 -2 -2 1020.3 1008.0
03 21.03 ЮЗ 1 10 км 10/0
[Ac und]
+0.5 -2.3 81 -1 -1 1019.6 1007.3 +0.5 37
06 21.03 ЮЗ 2 10 км 10/0
[Ac und]
+1.6 -1.9 78 -2 -1 1019.3 1007.1 +0.5
09 21.03 Ю 1 10 км {ливн. осадки} 9/6 300 м
[Cb cap Ac trans]
+3.7 -1.3 70 +3 +4 1018.8 1006.7
12 21.03 ЮЗ 3 10 км {ливн. осадки} 10/10 600 м
[Sc]
+3.6 -4.5 55 0 0 1017.9 1005.7
15 21.03 ЮЗ 2 10 км 3/3 600 м
[Sc]
+3.1 -4.9 56 +1 +1 1017.6 1005.4 +4.5 0.0
18 21.03 ЮЗ 2 10 км 10/10 600 м
[Sc]
+1.3 -4.6 65 -2 -2 1017.7 1005.4
21 21.03 З 2 10 км 10/10 600 м
[Sc]
+1.0 -3.2 74 -2 -2 1016.8 1004.5
00 22.03 ЮЗ 2 10 км 10/0
[Ac und]
+1.0 -2.7 76 -2 -2 1015.2 1002.9
03 22.03 Ю 3 10 км 10/10 600 м
[Sc]
+0.7 -2.7 78 -4 -4 1013.0 1000.7 +0.7 37
06 22.03 Ю 3 10 км 8/0
[Ac trans Ci fib]
+2.8 -2.2 70 -1 +1 1010.0 997.9 +0.1
09 22.03 Ю 4 4000 м слаб. ливневой дождь 10/10 600 м
[Cb cap]
+2.3 -0.9 79 -2 -2 1007.8 995.7
12 22.03 ЮВ 4 4000 м слаб. снег 10/10 300 м
[Frnb]
+1.9 -0.3 85 -3 -3 1006.5 994.3
15 22.03 ЮВ 4 1000 м снег 10/10 300 м
[Frnb]
+0.2 -0.8 93 -5 -5 1007.5 995.3 +4.0 2
18 22.03 В 3 4000 м слаб. снег 10/10 300 м
[Frnb]
+0.2 -0.7 94 -5 -5 1009.7 997.5
21 22.03 В 2 10 км {снег} 10/10 600 м
[Sc]
-0.4 -1.4 93 -4 -4 1012.5 1000.3
00 23.03 С 2 10 км {снег} 10/10 600 м
[Sc]
-1.4 -2.2 94 -5 -5 1015.6 1003.3
03 23.03 С 2 10 км 10/10 600 м
[Sc]
-0.8 -2.2 90 -5 -5 1018.3 1006.0 -1.9 2 36
06 23.03 СВ 4 10 км 10/10 600 м
[Sc]
+0.3 -2.5 81 -5 -5 1021.2 1008.8
09 23.03 СВ 3 10 км 6/6 600 м
[Cu Sc]
+3.8 -2.9 62 0 +3 1021.4 1009.2
12 23.03 СВ 3 10 км 5/4 1000 м
[Cu med, cong Ci fib]
+5.4 -6.0 44 +3 +5 1020.8 1008.7
15 23.03 С 2 10 км 3/1 1000 м
[Sc Ci fib]
+3.3 -3.5 61 +1 +1 1020.9 1008.7 +6.2
18 23.03 штиль 0 10 км ясно -1.4 -4.2 81 -2 -2 1020.7 1008.2
21 23.03 штиль 0 10 км ясно -4.3 -5.5 91 -5 -5 1019.5 1006.8
00 24.03 штиль 0 10 км 8/0
[Ci fib]
-5.4 -6.3 93 -6 -6 1017.8 1005.2
03 24.03 Ю 3 10 км 8/0
[Ci fib]
-3.7 -5.2 89 -9 -9 1015.3 1002.6 -6.1 35
06 24.03 Ю 2 10 км 10/0
[Ac As]
-0.2 -3.3 80 -4 -3 1013.2 1000.9
09 24.03 Ю 4 10 км 10/0
[Ac und]
+2.2 -3.2 67 -2 -1 1010.8 998.7
12 24.03 Ю 4 4000 м слаб. снег 10/10 300 м
[Frnb]
+2.0 -2.4 73 -3 -3 1008.2 996.1
15 24.03 Ю 3 1000 м снег 10/10 300 м
[Frnb]
+0.3 -0.8 92 -4 -4 1006.9 994.7 +3.3 0.7
18 24.03 Ю 3 1000 м снег 10/10 100 м
[Frnb]
-0.1 -0.9 94 -5 -5 1005.9 993.7
21 24.03 ЮЗ 1 4000 м слаб. снег 10/10 200 м
[Frnb]
-0.1 -0.9 94 -2 -2 1004.8 992.6
00 25.03 штиль 0 1000 м снег 10/10 200 м
[Frnb]
-0.1 -0.8 95 -1 -1 1003.7 991.5
03 25.03 штиль 0 10 км {снег} 10/10 200 м
[St]
-0.0 -0.7 95 -1 -1 1002.8 990.7 -0.2 5 37
06 25.03 СЗ 3 4000 м слаб. снег 10/10 300 м
[Frnb]
+0.6 -0.7 91 -4 -4 1002.7 990.6
09 25.03 СЗ 4 10 км {снег} 6/6 600 м
[Cb cap]
+2.3 -1.5 76 -2 -0 1002.2 990.1
12 25.03 СЗ 4 10 км {снег} 8/5 600 м
[Cb cap Ac trans]
+3.1 -4.6 57 -1 0 1001.7 989.7
15 25.03 СЗ 3 10 км {ливн. осадки} 8/3 600 м
[Cb cap Ac trans]
+2.7 -4.4 59 -1 -1 1002.6 990.6 +3.6 0.0
18 25.03 З 2 10 км {ливн. осадки} 8/0
[Ac trans]
+1.2 -5.9 59 -2 -2 1003.8 991.6
21 25.03 штиль 0 10 км 3/0
[Ac trans]
-0.3 -5.6 67 -1 -1 1004.5 992.3
00 26.03 ЮЗ 1 10 км ясно -0.9 -5.3 72 -3 -3 1004.9 992.7
03 26.03 Ю 1 10 км 8/0
[Ac trans Ci fib]
-4.0 -6.7 81 -6 -6 1005.3 992.9 -4.0 33
06 26.03 Ю 2 10 км 10/1 600 м
[Cu med, cong Ci fib]
+1.2 -5.4 61 -2 +1 1004.6 992.5 -4.1
09 26.03 Ю 4 10 км 10/1 1000 м
[Sc Ac trans Ci fib]
+7.2 -6.8 36 +4 +7 1003.8 991.9
12 26.03 Ю 4
{11}
10 км 10/9 600 м
[Cb cap Cs]
+6.9 -6.2 39 +4 +4 1003.1 991.2
15 26.03 Ю 4 10 км {ливн. осадки} 10/3 600 м
[Cu hum Ci fib]
+3.1 -1.3 73 -1 -1 1003.8 991.8 +7.8 0.0
18 26.03 ЮЗ 2 4000 м слаб. снег 10/10 300 м
[Frnb]
+1.4 -0.7 86 -2 -2 1004.7 992.6
21 26.03 ЮЗ 1 10 км {снег} 4/4 600 м
[Sc]
-0.4 -1.3 94 -3 -3 1005.8 993.6

 

Местоположение метеостанции Шуя (Ивановская область, Россия): широта 56.85 долгота 41.40 высота над уровнем моря 99 м.

В архиве по умолчанию представлена погода в Шуе за последнюю неделю. Архивные данные за месяц целиком и за предыдущие месяцы, начиная с января 2011 года, Вы можете получить, выбрав интересующий диапазон дат из раскрывающегося списка и нажав кнопку "Ввод!".


*Определитесь, кто Вы:
робот инопланетянин человек

Внимание! Время в таблицах - всемирное. Для получения местного времени необходимо прибавить поправку, которая равна 3 ч.

Смотрите также архив погоды в соседних городах и на ближайших метеорологических станциях:

Погода в Пешном (Атырауская область, Казахстан) (19 км)
Погода в Иванове (Ивановская область, Россия) (28 км)
Погода в Вичуге (Ивановская область, Россия) (52 км)
Погода в Тейково (Ивановская область, Россия) (52 км)
Погода в Коврове (Владимирская область, Россия) (55 км)
Погода в Приволжске (Ивановская область, Россия) (59 км)
Погода в Плесе (Ивановская область, Россия) (66 км)
Погода в Суздале (Владимирская область, Россия) (75 км)
Погода в Кинешме (Ивановская область, Россия) (79 км)
Погода в Вязниках (Владимирская область, Россия) (86 км)

Пояснения к столбцам:

Ветер - указаны скорость ветра в м/с - средняя за 10 мин, порывы в срок и между сроками (в фигурных скобках) и направление, откуда дует ветер: С - северный, СВ - северо-восточный, В - восточный, ЮВ - юго-восточный, Ю - южный, ЮЗ - юго-западный, З - западный, СЗ - северо-западный.
Видимость - горизонтальная дальность видимости в метрах или километрах. При видимости от 1 до 10 км при отсутствии осадков обычно наблюдается дымка, при ухудшении видимости до 1 км и менее - туман. В сухую погоду видимость может ухудшаться дымом, пылью или мглою.
Явления - указаны атмосферные явления, наблюдавшиеся в срок или в последний час перед сроком; фигурными скобками обозначены явления, наблюдавшиеся между сроками (за 1-3 часа до срока); квадратными скобками обозначены град или гололедные отложения с указанием их диаметра в мм.
Облачность - указаны через наклонную черту общая и нижняя облачность в баллах и высота нижней границы облаков в метрах; квадратными скобками обозначены формы облаков: Ci - перистые, Cs - перисто-слоистые, Cc - перисто-кучевые, Ac - высококучевые, As - высокослоистые, Sc - слоисто-кучевые, Ns - слоисто-дождевые, Cu - кучевые, Cb - кучево-дождевые. Подробнее классификацию облаков см. в Атласе облаков (PDF).
T - Температура воздуха - температура, измеренная на высоте 2 м над землей.
Td - Температура точки росы - температура, при понижении до которой содержащийся в воздухе водяной пар достигнет насыщения.
f - Относительная влажность воздуха - влажноcть воздуха, измеренная на высоте 2 м над землей.
Te - Эффективная температура - температура, которую ощущает одетый по сезону человек в тени. Характеристика душности погоды. При расчете учитывается влияние влажности воздуха и скорости ветра на теплоощущения человека.
Tes - Эффективная температура на солнце - температура, которую ощущает человек, с поправкой на солнечный нагрев. Характеристика знойности погоды. Зависит от высоты солнца над горизонтом, облачности и скорости ветра. Ночью, в пасмурную погоду, а также при ветре 12 м/с и более поправка равна нулю.
P - Атмосферное давление - приведенное к уровню моря атмосферное давление.
Po - Атмосферное давление - измеренное на уровне метеостанции атмосферное давление.
Tmin - Минимальная температура - минимум температуры воздуха на высоте 2 м над землей.
Tmax - Максимальная температура - максимум температуры воздуха на высоте 2 м над землей.
R - Количество осадков - Количество выпавших осадков за период времени, мм. При наведении курсора мыши на число - период времени, за который выпало указанное количество осадков.
R24 - Количество осадков - Количество выпавших осадков за 24 часа, мм.
S - Снежный покров - Высота снежного покрова, см. При наведении курсора мыши на число - состояние снежного покрова и степень покрытия местности в баллах.